This demonstration page uses our WeatherBlox Daily Observations layout. Learn more.

Left ArrowRight Arrow

Hourly Observations for June 21, 2019

Temp ( °F °C ) Dew Point ( °F °C ) Humidity (%) Winds ( mph kmh ) Pressure ( in mb ) Visibility ( mi km ) Precip ( " mm )
12:53 am 00:53 Cloudy 67 19.4 62 16.7 84 84 WNW 5 7 29.87 1012 10 16 N/A
1:14 am 01:14 Cloudy 66 18.9 61 16.1 84 84 WNW 6 9 29.87 1011 10 16 N/A
1:53 am 01:53 Mostly Cloudy 65 18.3 62 16.7 90 90 W 3 6 29.87 1012 10 16 N/A
2:53 am 02:53 Mostly Cloudy 64 17.8 62 16.7 93 93 N N/A 29.89 1012 10 16 N/A
3:53 am 03:53 Cloudy 64 17.8 61 16.1 90 90 WNW 5 7 29.91 1013 10 16 N/A
4:53 am 04:53 Cloudy 64 17.8 62 16.7 93 93 W 3 6 29.92 1013 10 16 N/A
5:51 am 05:51 Cloudy 64 18 61 16 88 88 W 5 7 29.94 1014 10 16 N/A
5:53 am 05:53 Cloudy 64 17.8 61 16.1 90 90 W 5 7 29.94 1014 10 16 N/A
6:25 am 06:25 Cloudy 64 17.8 61 16.1 90 90 WNW 5 7 29.95 1014 9 14 N/A
6:53 am 06:53 Cloudy 64 17.8 62 16.7 93 93 WSW 3 6 29.97 1015 10 16 N/A
7:28 am 07:28 Cloudy 64 17.8 61 16.1 90 90 WNW 5 7 29.98 1015 10 16 N/A
7:53 am 07:53 Mostly Sunny 66 18.9 61 16.1 84 84 NW 5 7 29.99 1016 10 16 N/A
8:23 am 08:23 Mostly Cloudy 66 18.9 61 16.1 84 84 NW 5 7 30.01 1016 10 16 N/A
8:31 am 08:31 Partly Cloudy 67 19.4 61 16.1 81 81 NW 5 7 30.00 1016 10 16 N/A
8:53 am 08:53 Partly Cloudy 68 20 61 16.1 78 78 NW 6 9 30.02 1017 10 16 N/A
9:08 am 09:08 Mostly Cloudy 68 20 60 15.6 76 76 WNW 8 13 30.03 1017 10 16 N/A
9:20 am 09:20 Partly Cloudy 68 20 60 15.6 76 76 WNW 3 6 30.04 1017 10 16 N/A
9:53 am 09:53 Sunny 69 20.6 59 15 70 70 N N/A 30.02 1017 10 16 N/A
10:33 am 10:33 Mostly Cloudy 71 21.7 59 15 66 66 N N/A 30.00 1016 10 16 N/A
10:53 am 10:53 Mostly Cloudy 71 21.7 59 15 66 66 N N/A 30.02 1017 10 16 N/A
11:05 am 11:05 Partly Cloudy 72 22.2 57 13.9 59 59 N N/A 30.01 1016 10 16 N/A
11:53 am 11:53 Sunny 74 23.3 59 15 60 60 VRB 3 6 30.02 1017 10 16 N/A
12:53 pm 12:53 Sunny 74 23.3 57 13.9 56 56 N N/A 30.03 1017 10 16 N/A
1:53 pm 13:53 Sunny 77 25 59 15 54 54 N N/A 30.02 1017 10 16 N/A
2:53 pm 14:53 Sunny 78 25.6 56 13.3 47 47 N N/A 30.01 1016 10 16 N/A
3:53 pm 15:53 Sunny 80 26.7 57 13.9 45 45 N N/A 29.98 1015 10 16 N/A
4:53 pm 16:53 Sunny 79 26.1 57 13.9 47 47 VRB 6 9 29.99 1016 10 16 N/A
5:53 pm 17:53 Mostly Cloudy 78 25.6 59 15 52 52 WNW 7 11 29.98 1015 10 16 N/A
6:53 pm 18:53 Cloudy 77 25 60 15.6 56 56 WNW 6 9 30.00 1016 10 16 N/A
7:53 pm 19:53 Mostly Sunny 73 22.8 65 18.3 76 76 N N/A 29.98 1015 10 16 N/A
8:53 pm 20:53 Mostly Sunny 73 22.8 62 16.7 69 69 VRB 3 6 29.96 1015 10 16 N/A
9:53 pm 21:53 Mostly Clear 71 21.7 62 16.7 73 73 N N/A 29.94 1014 10 16 N/A
10:53 pm 22:53 Cloudy 69 20.6 66 18.9 90 90 N N/A 29.97 1015 10 16 N/A
11:53 pm 23:53 Clear 68 20 65 18.3 90 90 N N/A 29.96 1015 10 16 N/A

Powered by AerisWeather